Rbgn^[z[y[W
メイン
   新天体発見情報
     Comet P/2022 R4 (PANSTARRS)
投稿するにはまず登録を

スレッド表示 | 新しいものから 前のトピック | 次のトピック | 下へ
投稿者 スレッド
佐藤裕久
投稿日時: 2022-10-12 10:17
モデレータ
登録日: 2005-6-12
居住地: 日本
投稿: 2689
オンライン
Comet P/2022 R4 (PANSTARRS)

R. Weryk (西オンタリオ大学,物理および天文学科)の通報によると、9月2日、Haleakala
にあるPan-STARRS1の1.8-m Ritchey-Chretien 反射望遠鏡で、4枚の45秒w-バンドサーベイ
画像から彗星を発見した。1".0のシーイングで、1".4(半値全幅:FWHM)の集光したコマが見え、
p.a. 280°に約5"の尾がある。
フォローアップ観測は、9月3.6日UT、R. WainscoatとWerykによって、Maunakeaにある3.6-m
Canada-France-Hawaii望遠鏡で行われた。3枚の60秒gri-バンド画像から間違いなく彗星で
0".67のシーイングで、1".0(半値全幅:FWHM)の集光したコマが見え、p.a. 280°にハッキリ
した5"の尾がある。
Werykは、9月22.58日、2枚の60秒w-バンドフォローアップPan-STARRS1画像では、1".0のシー
イングで、1".4(:FWHM)の集光したコマが見え、こちらもp.a. 280°に5"の尾があると追記した。

彗星機能の報告は次のとおり、

OC   Date        Reporter           Coma    Tail    PA          Exposures
568  2022-09-03  R. Weryk           0".3     5"     280         3x60s
F51  2022-09-22  R. Weryk           0".4     5"     280         2x60s

発見位置は次のとおり、

     2022 UT             R.A. (2000) Decl.       Mag.
     Sept. 2.57664    4 29 45.92   + 5 22 12.5   21.3
           2.58973    4 29 47.09   + 5 22 04.4   21.1
           2.60269    4 29 48.27   + 5 21 56.6   21.0
           2.62318    4 29 50.13   + 5 21 43.8   21.0

MPCの楕円軌道要素、位置推算表は次のとおり、

Orbital elements:
    P/2022 R4 (PANSTARRS)                                                       
Epoch 2022 Aug. 9.0 TT = JDT 2459800.5                                          
T 2022 July 10.39449 TT                                 Rudenko                 
q   1.9555785            (2000.0)            P               Q                  
n   0.13106047     Peri.  197.43573     +0.96886891     -0.24667140             
a   3.8384413      Node   176.62392     +0.24737619     +0.96797584             
e   0.4905280      Incl.   21.02176     -0.00990264     +0.04664751             
P   7.52                                                                        
From 34 observations 2022 Sept. 2-Oct. 4, mean residual 0".3.                   
                                                                                
Ephemeris:
Date    TT    R. A. (2000) Decl.     Delta      r    Elong.  Phase   m1
2022 09 06    04 34 54.2 +04 46 05   1.6599  2.0169    95.1    29.9  20.6
...
2022 09 21    04 54 05.1 +01 45 37   1.5577  2.0516   104.3    28.3  20.6
...
2022 09 29    05 01 46.8 -00 02 44   1.5091  2.0728   109.6    27.1  20.6
...
2022 10 05    05 06 15.3 -01 27 35   1.4761  2.0899   113.7    26.0  20.5
2022 10 06    05 06 53.3 -01 41 55   1.4710  2.0929   114.4    25.8  20.5
2022 10 07    05 07 29.4 -01 56 18   1.4659  2.0959   115.1    25.6  20.5
...
2022 10 13    05 10 24.3 -03 22 56   1.4376  2.1142   119.4    24.3  20.5
...
2022 10 21    05 12 24.2 -05 17 21   1.4064  2.1402   125.1    22.4  20.5
...
2022 11 05    05 10 25.6 -08 32 37   1.3724  2.1927   135.5    18.5  20.6

(MPEC 2022-T87、CBET 5174)

スレッド表示 | 新しいものから 前のトピック | 次のトピック | トップ

投稿するにはまず登録を
 
© 1999 Tsutomu Seki.